Previsão horária em Barsovo

Hoje, 22 Outubro, Quinta-feira

Tempo Temperatura Precipitação Vento Pressão Humidade
00:00 +4°C° 0 mm 2 m/s 743 mmHg 98%
01:00 +4°C° 0 mm 2 m/s 744 mmHg 98%
02:00 +4°C° 0 mm 2 m/s 744 mmHg 98%
03:00 +4°C° 0 mm 2 m/s 743 mmHg 97%
04:00 +4°C° 0 mm 2 m/s 743 mmHg 97%
05:00 +3°C° 0 mm 3 m/s 742 mmHg 97%
06:00 +4°C° 0.1 mm 3 m/s 742 mmHg 96%
07:00 +4°C° 0.1 mm 3 m/s 741 mmHg 95%
08:00 +4°C° 0.1 mm 4 m/s 741 mmHg 94%
09:00 +5°C° 1 mm 4 m/s 741 mmHg 94%
10:00 +5°C° 1 mm 4 m/s 740 mmHg 94%
11:00 +5°C° 1 mm 4 m/s 739 mmHg 94%
12:00 +6°C° 0.5 mm 4 m/s 739 mmHg 93%
13:00 +6°C° 0.5 mm 4 m/s 738 mmHg 93%
14:00 +7°C° 0.5 mm 5 m/s 738 mmHg 92%
15:00 +7°C° 0 mm 5 m/s 737 mmHg 91%
16:00 +8°C° 0 mm 5 m/s 736 mmHg 90%
17:00 +8°C° 0 mm 5 m/s 736 mmHg 89%
18:00 +9°C° 0.1 mm 5 m/s 735 mmHg 89%
19:00 +9°C° 0.1 mm 5 m/s 735 mmHg 88%
20:00 +10°C° 0.1 mm 6 m/s 735 mmHg 88%
21:00 +10°C° 0.1 mm 6 m/s 735 mmHg 86%
22:00 +11°C° 0.1 mm 6 m/s 735 mmHg 84%
23:00 +11°C° 0.1 mm 7 m/s 734 mmHg 82%

Amanhã, 23 Outubro, Sexta-feira

Tempo Temperatura Precipitação Vento Pressão Humidade
00:00 +11°C° 0 mm 6 m/s 735 mmHg 81%
01:00 +11°C° 0 mm 6 m/s 736 mmHg 81%
02:00 +11°C° 0 mm 6 m/s 737 mmHg 81%
03:00 +10°C° 0 mm 6 m/s 737 mmHg 83%
04:00 +10°C° 0 mm 6 m/s 737 mmHg 84%
05:00 +9°C° 0 mm 5 m/s 737 mmHg 86%
06:00 +9°C° 0 mm 5 m/s 737 mmHg 85%
07:00 +9°C° 0 mm 5 m/s 737 mmHg 85%
08:00 +9°C° 0 mm 5 m/s 737 mmHg 84%
09:00 +10°C° 0 mm 5 m/s 737 mmHg 84%
10:00 +10°C° 0 mm 5 m/s 737 mmHg 84%
11:00 +10°C° 0 mm 5 m/s 737 mmHg 84%
12:00 +10°C° 1 mm 5 m/s 736 mmHg 86%
13:00 +11°C° 1 mm 4 m/s 736 mmHg 89%
14:00 +11°C° 1 mm 4 m/s 735 mmHg 92%
15:00 +11°C° 0.5 mm 4 m/s 735 mmHg 91%
16:00 +11°C° 0.5 mm 4 m/s 735 mmHg 90%
17:00 +11°C° 0.5 mm 4 m/s 734 mmHg 89%
18:00 +11°C° 0.3 mm 4 m/s 735 mmHg 88%
19:00 +10°C° 0.3 mm 4 m/s 735 mmHg 86%
20:00 +10°C° 0.3 mm 4 m/s 735 mmHg 84%
21:00 +8°C° 0 mm 4 m/s 735 mmHg 85%
22:00 +8°C° 0 mm 4 m/s 736 mmHg 86%
23:00 +8°C° 0 mm 4 m/s 736 mmHg 88%

Depois de amanhã, 24 Outubro, Sábado

Tempo Temperatura Precipitação Vento Pressão Humidade
00:00 +7°C° 0 mm 4 m/s 737 mmHg 88%
01:00 +7°C° 0 mm 4 m/s 737 mmHg 88%
02:00 +7°C° 0 mm 4 m/s 738 mmHg 88%
03:00 +8°C° 0 mm 3 m/s 738 mmHg 89%
04:00 +8°C° 0 mm 3 m/s 738 mmHg 90%
05:00 +8°C° 0 mm 3 m/s 738 mmHg 91%
06:00 +8°C° 0 mm 3 m/s 738 mmHg 92%
07:00 +7°C° 0 mm 2 m/s 739 mmHg 93%
08:00 +7°C° 0 mm 2 m/s 739 mmHg 93%
09:00 +8°C° 0 mm 3 m/s 739 mmHg 90%
10:00 +8°C° 0 mm 3 m/s 739 mmHg 87%
11:00 +9°C° 0 mm 3 m/s 739 mmHg 84%
12:00 +9°C° 0 mm 3 m/s 739 mmHg 83%
13:00 +9°C° 0 mm 3 m/s 739 mmHg 81%
14:00 +9°C° 0 mm 3 m/s 739 mmHg 80%
15:00 +8°C° 0 mm 2 m/s 739 mmHg 82%
16:00 +8°C° 0 mm 2 m/s 739 mmHg 84%
17:00 +8°C° 0 mm 2 m/s 739 mmHg 87%
18:00 +8°C° 0 mm 1 m/s 739 mmHg 89%
19:00 +8°C° 0 mm 1 m/s 739 mmHg 91%
20:00 +8°C° 0 mm 1 m/s 739 mmHg 94%
21:00 +8°C° 0 mm 1 m/s 739 mmHg 95%
22:00 +8°C° 0 mm 1 m/s 739 mmHg 96%
23:00 +8°C° 0 mm 1 m/s 739 mmHg 97%

, 25 Outubro, Domingo

Tempo Temperatura Precipitação Vento Pressão Humidade
00:00 +8°C° 0 mm 1 m/s 739 mmHg 97%
01:00 +8°C° 0 mm 1 m/s 739 mmHg 97%
02:00 +8°C° 0 mm 1 m/s 739 mmHg 97%
03:00 +7°C° 0.1 mm 2 m/s 739 mmHg 97%
04:00 +7°C° 0.1 mm 2 m/s 739 mmHg 96%
05:00 +7°C° 0.1 mm 2 m/s 739 mmHg 96%
06:00 +7°C° 0.2 mm 3 m/s 739 mmHg 93%
07:00 +8°C° 0.2 mm 3 m/s 739 mmHg 90%
08:00 +7°C° 0.2 mm 4 m/s 739 mmHg 87%
09:00 +7°C° 0 mm 4 m/s 740 mmHg 84%
10:00 +7°C° 0 mm 4 m/s 741 mmHg 81%
11:00 +7°C° 0 mm 4 m/s 741 mmHg 78%
12:00 +7°C° 0 mm 4 m/s 742 mmHg 78%
13:00 +7°C° 0 mm 4 m/s 742 mmHg 78%
14:00 +7°C° 0 mm 4 m/s 743 mmHg 79%
15:00 +8°C° 0 mm 3 m/s 743 mmHg 79%
16:00 +8°C° 0 mm 3 m/s 744 mmHg 80%
17:00 +7°C° 0 mm 3 m/s 744 mmHg 80%
18:00 +7°C° 0 mm 2 m/s 745 mmHg 81%
19:00 +7°C° 0 mm 2 m/s 746 mmHg 83%
20:00 +6°C° 0 mm 2 m/s 746 mmHg 84%
21:00 +7°C° 0 mm 1 m/s 746 mmHg 87%
22:00 +6°C° 0 mm 1 m/s 747 mmHg 90%
23:00 +5°C° 0 mm 1 m/s 747 mmHg 93%

25 Outubro, Domingo

Tempo Temperatura Precipitação Vento Pressão Humidade
00:00 +8°C° 0 mm 1 m/s 739 mmHg 97%
01:00 +8°C° 0 mm 1 m/s 739 mmHg 97%
02:00 +8°C° 0 mm 1 m/s 739 mmHg 97%
03:00 +7°C° 0.1 mm 2 m/s 739 mmHg 97%
04:00 +7°C° 0.1 mm 2 m/s 739 mmHg 96%
05:00 +7°C° 0.1 mm 2 m/s 739 mmHg 96%
06:00 +7°C° 0.2 mm 3 m/s 739 mmHg 93%
07:00 +8°C° 0.2 mm 3 m/s 739 mmHg 90%
08:00 +7°C° 0.2 mm 4 m/s 739 mmHg 87%
09:00 +7°C° 0 mm 4 m/s 740 mmHg 84%
10:00 +7°C° 0 mm 4 m/s 741 mmHg 81%
11:00 +7°C° 0 mm 4 m/s 741 mmHg 78%
12:00 +7°C° 0 mm 4 m/s 742 mmHg 78%
13:00 +7°C° 0 mm 4 m/s 742 mmHg 78%
14:00 +7°C° 0 mm 4 m/s 743 mmHg 79%
15:00 +8°C° 0 mm 3 m/s 743 mmHg 79%
16:00 +8°C° 0 mm 3 m/s 744 mmHg 80%
17:00 +7°C° 0 mm 3 m/s 744 mmHg 80%
18:00 +7°C° 0 mm 2 m/s 745 mmHg 81%
19:00 +7°C° 0 mm 2 m/s 746 mmHg 83%
20:00 +6°C° 0 mm 2 m/s 746 mmHg 84%
21:00 +7°C° 0 mm 1 m/s 746 mmHg 87%
22:00 +6°C° 0 mm 1 m/s 747 mmHg 90%
23:00 +5°C° 0 mm 1 m/s 747 mmHg 93%

26 Outubro, Segunda-feira

Tempo Temperatura Precipitação Vento Pressão Humidade
00:00 +5°C° 0 mm 1 m/s 747 mmHg 93%
01:00 +5°C° 0 mm 1 m/s 748 mmHg 94%
02:00 +5°C° 0 mm 1 m/s 748 mmHg 94%
03:00 +4°C° 0 mm 1 m/s 748 mmHg 94%
04:00 +3°C° 0 mm 0 m/s 749 mmHg 94%
05:00 +3°C° 0 mm 0 m/s 749 mmHg 94%
06:00 +4°C° 0 mm 1 m/s 749 mmHg 94%
07:00 +5°C° 0 mm 1 m/s 749 mmHg 94%
08:00 +5°C° 0 mm 1 m/s 750 mmHg 94%
09:00 +6°C° 0 mm 1 m/s 750 mmHg 90%
10:00 +8°C° 0 mm 1 m/s 750 mmHg 86%
11:00 +8°C° 0 mm 2 m/s 750 mmHg 82%
12:00 +8°C° 0 mm 2 m/s 750 mmHg 80%
13:00 +9°C° 0 mm 2 m/s 750 mmHg 79%
14:00 +9°C° 0 mm 2 m/s 750 mmHg 77%
15:00 +8°C° 0 mm 2 m/s 750 mmHg 82%
16:00 +7°C° 0 mm 2 m/s 750 mmHg 87%
17:00 +6°C° 0 mm 2 m/s 750 mmHg 92%
18:00 +6°C° 0 mm 2 m/s 750 mmHg 93%
19:00 +6°C° 0 mm 2 m/s 750 mmHg 94%
20:00 +5°C° 0 mm 2 m/s 750 mmHg 95%
21:00 +5°C° 0 mm 2 m/s 750 mmHg 94%
22:00 +5°C° 0 mm 2 m/s 750 mmHg 94%
23:00 +5°C° 0 mm 2 m/s 750 mmHg 94%

27 Outubro, Terça-feira

Tempo Temperatura Precipitação Vento Pressão Humidade
00:00 +4°C° 0 mm 2 m/s 750 mmHg 94%
01:00 +4°C° 0 mm 2 m/s 750 mmHg 94%
02:00 +4°C° 0 mm 2 m/s 750 mmHg 94%
03:00 +3°C° 0 mm 3 m/s 749 mmHg 94%
04:00 +3°C° 0 mm 3 m/s 749 mmHg 94%
05:00 +3°C° 0 mm 3 m/s 749 mmHg 95%
06:00 +3°C° 0 mm 3 m/s 749 mmHg 94%
07:00 +3°C° 0 mm 3 m/s 749 mmHg 93%
08:00 +3°C° 0 mm 3 m/s 749 mmHg 92%
09:00 +4°C° 0 mm 3 m/s 749 mmHg 88%
10:00 +5°C° 0 mm 3 m/s 749 mmHg 84%
11:00 +6°C° 0 mm 4 m/s 749 mmHg 80%
12:00 +6°C° 0 mm 4 m/s 749 mmHg 79%
13:00 +7°C° 0 mm 4 m/s 748 mmHg 78%
14:00 +7°C° 0 mm 4 m/s 748 mmHg 77%
15:00 +7°C° 0 mm 4 m/s 748 mmHg 80%
16:00 +6°C° 0 mm 4 m/s 748 mmHg 82%
17:00 +7°C° 0 mm 3 m/s 748 mmHg 84%
18:00 +7°C° 0 mm 3 m/s 748 mmHg 87%
19:00 +5°C° 0 mm 3 m/s 748 mmHg 89%
20:00 +5°C° 0 mm 3 m/s 748 mmHg 92%
21:00 +5°C° 0 mm 3 m/s 748 mmHg 92%
22:00 +5°C° 0 mm 3 m/s 748 mmHg 93%
23:00 +6°C° 0 mm 2 m/s 748 mmHg 94%
Mostrar mais